Time,TemperatureF,DewpointF,PressureIn,WindDirection,WindDirectionDegrees,WindSpeedMPH,WindSpeedGustMPH,Humidity,HourlyPrecipIn,Conditions,Clouds,dailyrainin,SoftwareType,DateUTC
2013-02-03 00:01:00,43.0,43.0,30.20,ENE,76,0.0,0.0,99,0.00,,,0.00,,2013-02-03 08:01:00,
2013-02-03 00:11:00,43.0,43.0,30.20,ENE,76,0.0,0.0,99,0.00,,,0.00,,2013-02-03 08:11:00,
2013-02-03 00:22:00,42.0,42.0,30.20,ENE,76,0.0,0.0,99,0.00,,,0.00,,2013-02-03 08:22:00,
2013-02-03 00:31:00,42.0,42.0,30.20,ENE,76,0.0,0.0,99,0.00,,,0.00,,2013-02-03 08:31:00,
2013-02-03 00:41:00,42.0,42.0,30.20,ENE,76,0.0,0.0,99,0.00,,,0.00,,2013-02-03 08:41:00,
2013-02-03 00:52:00,42.0,42.0,30.20,ENE,76,0.0,0.0,100,0.00,,,0.00,,2013-02-03 08:52:00,
2013-02-03 01:02:00,42.0,42.0,30.21,ENE,76,0.0,0.0,100,0.00,,,0.00,,2013-02-03 09:02:00,
2013-02-03 01:11:00,42.0,42.0,30.21,ENE,76,0.0,0.0,100,0.00,,,0.00,,2013-02-03 09:11:00,
2013-02-03 01:21:00,44.0,44.0,30.20,ENE,76,0.0,0.0,100,0.00,,,0.00,,2013-02-03 09:21:00,
2013-02-03 01:31:00,45.0,45.0,30.20,ENE,76,0.0,0.0,100,0.00,,,0.00,,2013-02-03 09:31:00,
2013-02-03 01:41:00,45.0,45.0,30.20,ENE,76,0.0,0.0,100,0.00,,,0.00,,2013-02-03 09:41:00,
2013-02-03 01:52:00,45.0,45.0,30.19,ENE,76,0.0,0.0,100,0.00,,,0.00,,2013-02-03 09:52:00,
2013-02-03 02:01:00,45.0,45.0,30.19,ENE,76,0.0,0.0,100,0.00,,,0.00,,2013-02-03 10:01:00,
2013-02-03 02:11:00,46.0,46.0,30.20,ENE,76,0.0,0.0,100,0.00,,,0.00,,2013-02-03 10:11:00,
2013-02-03 02:21:00,46.0,46.0,30.20,ENE,76,0.0,0.0,100,0.00,,,0.00,,2013-02-03 10:21:00,
2013-02-03 02:31:00,46.0,46.0,30.20,ENE,76,0.0,0.0,100,0.00,,,0.00,,2013-02-03 10:31:00,
2013-02-03 02:41:00,46.0,46.0,30.20,ENE,76,0.0,0.0,100,0.00,,,0.00,,2013-02-03 10:41:00,
2013-02-03 02:52:00,46.0,46.0,30.20,ENE,76,0.0,0.0,100,0.00,,,0.00,,2013-02-03 10:52:00,
2013-02-03 03:01:00,45.0,45.0,30.20,ENE,76,0.0,0.0,100,0.00,,,0.00,,2013-02-03 11:01:00,
2013-02-03 03:11:00,45.0,45.0,30.20,ENE,76,0.0,0.0,100,0.00,,,0.00,,2013-02-03 11:11:00,
2013-02-03 03:22:00,45.0,45.0,30.20,ENE,76,0.0,0.0,100,0.00,,,0.00,,2013-02-03 11:22:00,
2013-02-03 03:31:00,45.0,45.0,30.20,ENE,76,0.0,0.0,100,0.00,,,0.00,,2013-02-03 11:31:00,
2013-02-03 03:41:00,45.0,45.0,30.20,ENE,76,0.0,0.0,100,0.00,,,0.00,,2013-02-03 11:41:00,
2013-02-03 03:52:00,45.0,45.0,30.19,ENE,76,0.0,0.0,100,0.00,,,0.00,,2013-02-03 11:52:00,
2013-02-03 04:02:00,45.0,45.0,30.18,ENE,76,0.0,0.0,100,0.00,,,0.00,,2013-02-03 12:02:00,
2013-02-03 04:11:00,45.0,45.0,30.18,ENE,76,0.0,0.0,100,0.00,,,0.00,,2013-02-03 12:11:00,
2013-02-03 04:21:00,45.0,45.0,30.18,ENE,76,0.0,0.0,100,0.00,,,0.00,,2013-02-03 12:21:00,
2013-02-03 04:32:00,45.0,45.0,30.18,ENE,76,0.0,0.0,100,0.00,,,0.00,,2013-02-03 12:32:00,
2013-02-03 04:42:00,45.0,45.0,30.18,ENE,76,0.0,0.0,100,0.00,,,0.00,,2013-02-03 12:42:00,
2013-02-03 04:53:00,45.0,45.0,30.18,ENE,76,0.0,0.0,100,0.00,,,0.00,,2013-02-03 12:53:00,
2013-02-03 05:02:00,45.0,45.0,30.17,NW,314,0.0,2.0,100,0.00,,,0.00,,2013-02-03 13:02:00,
2013-02-03 05:11:00,45.0,45.0,30.17,NW,314,0.0,0.0,100,0.00,,,0.00,,2013-02-03 13:11:00,
2013-02-03 05:21:00,45.0,45.0,30.17,NW,314,0.0,0.0,100,0.00,,,0.00,,2013-02-03 13:21:00,
2013-02-03 05:32:00,45.0,45.0,30.17,NNW,331,0.0,4.0,100,0.00,,,0.00,,2013-02-03 13:32:00,
2013-02-03 05:41:00,45.0,45.0,30.17,NNW,331,0.0,4.0,100,0.00,,,0.00,,2013-02-03 13:41:00,
2013-02-03 05:52:00,45.0,45.0,30.17,NW,313,4.0,5.0,100,0.00,,,0.00,,2013-02-03 13:52:00,
2013-02-03 06:02:00,45.0,45.0,30.16,West,263,0.0,0.0,100,0.00,,,0.00,,2013-02-03 14:02:00,
2013-02-03 06:11:00,45.0,45.0,30.16,West,263,0.0,0.0,100,0.00,,,0.00,,2013-02-03 14:11:00,
2013-02-03 06:21:00,45.0,45.0,30.16,West,263,0.0,0.0,100,0.00,,,0.00,,2013-02-03 14:21:00,
2013-02-03 06:32:00,45.0,45.0,30.17,West,263,0.0,0.0,100,0.00,,,0.00,,2013-02-03 14:32:00,
2013-02-03 06:41:00,45.0,45.0,30.17,West,263,0.0,0.0,100,0.00,,,0.00,,2013-02-03 14:41:00,
2013-02-03 06:52:00,45.0,45.0,30.17,WNW,295,0.0,3.0,100,0.00,,,0.00,,2013-02-03 14:52:00,
2013-02-03 07:02:00,45.0,45.0,30.17,NW,320,3.0,5.0,100,0.00,,,0.00,,2013-02-03 15:02:00,
2013-02-03 07:11:00,43.0,43.0,30.17,NW,321,0.0,4.0,100,0.00,,,0.00,,2013-02-03 15:11:00,
2013-02-03 07:21:00,43.0,43.0,30.17,NW,321,0.0,4.0,100,0.00,,,0.00,,2013-02-03 15:21:00,
2013-02-03 07:32:00,42.0,42.0,30.17,NW,321,0.0,0.0,99,0.00,,,0.00,,2013-02-03 15:32:00,
2013-02-03 07:42:00,42.0,42.0,30.17,NW,321,0.0,0.0,99,0.00,,,0.00,,2013-02-03 15:42:00,
2013-02-03 07:51:00,41.0,41.0,30.17,NW,321,0.0,0.0,99,0.00,,,0.00,,2013-02-03 15:51:00,
2013-02-03 08:01:00,41.0,41.0,30.18,NW,321,0.0,0.0,100,0.00,,,0.00,,2013-02-03 16:01:00,
2013-02-03 08:11:00,41.0,41.0,30.18,NW,321,0.0,0.0,100,0.00,,,0.00,,2013-02-03 16:11:00,
2013-02-03 08:21:00,41.0,41.0,30.18,NW,321,0.0,0.0,100,0.00,,,0.00,,2013-02-03 16:21:00,
2013-02-03 08:32:00,41.0,41.0,30.19,NW,321,0.0,0.0,100,0.00,,,0.00,,2013-02-03 16:32:00,
2013-02-03 08:41:00,41.0,41.0,30.19,NW,321,0.0,0.0,100,0.00,,,0.00,,2013-02-03 16:41:00,
2013-02-03 08:52:00,43.0,43.0,30.19,NW,321,0.0,0.0,100,0.00,,,0.00,,2013-02-03 16:52:00,
2013-02-03 09:01:00,44.0,44.0,30.19,NW,321,0.0,0.0,100,0.00,,,0.00,,2013-02-03 17:01:00,
2013-02-03 09:11:00,44.0,44.0,30.19,NW,321,0.0,0.0,100,0.00,,,0.00,,2013-02-03 17:11:00,
2013-02-03 09:21:00,44.0,44.0,30.19,NW,321,0.0,0.0,100,0.00,,,0.00,,2013-02-03 17:21:00,
2013-02-03 09:31:00,45.0,45.0,30.19,SSW,211,2.0,3.0,99,0.00,,,0.00,,2013-02-03 17:31:00,
2013-02-03 09:41:00,45.0,45.0,30.19,SSW,211,2.0,3.0,99,0.00,,,0.00,,2013-02-03 17:41:00,
2013-02-03 09:52:00,46.0,45.0,30.19,SW,215,0.0,0.0,97,0.00,,,0.00,,2013-02-03 17:52:00,
2013-02-03 10:01:00,47.0,45.0,30.20,WNW,292,3.0,4.0,94,0.00,,,0.00,,2013-02-03 18:01:00,
2013-02-03 10:11:00,47.0,45.0,30.20,WNW,292,3.0,4.0,94,0.00,,,0.00,,2013-02-03 18:11:00,
2013-02-03 10:22:00,47.0,45.0,30.19,WNW,297,0.0,4.0,91,0.00,,,0.00,,2013-02-03 18:22:00,
2013-02-03 10:32:00,48.0,45.0,30.20,East,93,2.0,3.0,88,0.00,,,0.00,,2013-02-03 18:32:00,
2013-02-03 10:41:00,48.0,45.0,30.20,East,93,2.0,3.0,88,0.00,,,0.00,,2013-02-03 18:41:00,
2013-02-03 10:51:00,49.0,46.0,30.20,West,280,3.0,5.0,90,0.00,,,0.00,,2013-02-03 18:51:00,
2013-02-03 11:02:00,49.0,45.0,30.20,West,275,0.0,4.0,87,0.00,,,0.00,,2013-02-03 19:02:00,
2013-02-03 11:11:00,49.0,45.0,30.20,West,275,0.0,4.0,87,0.00,,,0.00,,2013-02-03 19:11:00,
2013-02-03 11:21:00,49.0,44.0,30.20,NW,304,1.0,3.0,84,0.00,,,0.00,,2013-02-03 19:21:00,
2013-02-03 11:31:00,51.0,45.0,30.20,SSE,164,2.0,5.0,80,0.00,,,0.00,,2013-02-03 19:31:00,
2013-02-03 11:41:00,51.0,45.0,30.20,SSE,164,2.0,5.0,80,0.00,,,0.00,,2013-02-03 19:41:00,
2013-02-03 11:51:00,53.0,43.0,30.19,SSW,210,4.0,7.0,70,0.00,,,0.00,,2013-02-03 19:51:00,
2013-02-03 12:01:00,54.0,44.0,30.18,SW,224,3.0,8.0,69,0.00,,,0.00,,2013-02-03 20:01:00,
2013-02-03 12:11:00,54.0,44.0,30.18,SW,224,3.0,8.0,69,0.00,,,0.00,,2013-02-03 20:11:00,
2013-02-03 12:21:00,54.0,45.0,30.17,SSE,156,4.0,8.0,72,0.00,,,0.00,,2013-02-03 20:21:00,
2013-02-03 12:32:00,54.0,44.0,30.16,East,98,1.0,4.0,70,0.00,,,0.00,,2013-02-03 20:32:00,
2013-02-03 12:42:00,54.0,44.0,30.16,East,98,1.0,4.0,70,0.00,,,0.00,,2013-02-03 20:42:00,
2013-02-03 12:52:00,56.0,45.0,30.16,South,178,4.0,7.0,67,0.00,,,0.00,,2013-02-03 20:52:00,
2013-02-03 13:02:00,56.0,46.0,30.15,NW,311,4.0,8.0,68,0.00,,,0.00,,2013-02-03 21:02:00,
2013-02-03 13:11:00,56.0,46.0,30.15,NW,311,4.0,8.0,68,0.00,,,0.00,,2013-02-03 21:11:00,
2013-02-03 13:21:00,56.0,46.0,30.15,WNW,290,4.0,7.0,69,0.00,,,0.00,,2013-02-03 21:21:00,
2013-02-03 13:32:00,56.0,44.0,30.14,West,271,5.0,7.0,65,0.00,,,0.00,,2013-02-03 21:32:00,
2013-02-03 13:42:00,56.0,44.0,30.14,West,271,5.0,7.0,65,0.00,,,0.00,,2013-02-03 21:42:00,
2013-02-03 13:51:00,58.0,46.0,30.14,NW,310,4.0,7.0,65,0.00,,,0.00,,2013-02-03 21:51:00,
2013-02-03 14:01:00,60.0,46.0,30.15,WNW,301,4.0,8.0,59,0.00,,,0.00,,2013-02-03 22:01:00,
2013-02-03 14:11:00,60.0,46.0,30.15,WNW,301,4.0,8.0,59,0.00,,,0.00,,2013-02-03 22:11:00,
2013-02-03 14:21:00,62.0,49.0,30.14,WNW,294,6.0,10.0,62,0.00,,,0.00,,2013-02-03 22:21:00,
2013-02-03 14:31:00,61.0,47.0,30.14,NW,305,6.0,11.0,61,0.00,,,0.00,,2013-02-03 22:31:00,
2013-02-03 14:42:00,61.0,47.0,30.14,NW,305,6.0,11.0,61,0.00,,,0.00,,2013-02-03 22:42:00,
2013-02-03 14:51:00,62.0,47.0,30.13,West,277,4.0,10.0,59,0.00,,,0.00,,2013-02-03 22:51:00,
2013-02-03 15:01:00,62.0,47.0,30.13,WNW,289,4.0,10.0,59,0.00,,,0.00,,2013-02-03 23:01:00,
2013-02-03 15:11:00,62.0,47.0,30.13,WNW,289,4.0,10.0,59,0.00,,,0.00,,2013-02-03 23:11:00,
2013-02-03 15:21:00,62.0,46.0,30.12,NW,311,5.0,7.0,56,0.00,,,0.00,,2013-02-03 23:21:00,
2013-02-03 15:32:00,60.0,46.0,30.12,WNW,295,4.0,7.0,60,0.00,,,0.00,,2013-02-03 23:32:00,
2013-02-03 15:41:00,60.0,46.0,30.12,WNW,295,4.0,7.0,60,0.00,,,0.00,,2013-02-03 23:41:00,
2013-02-03 15:52:00,59.0,46.0,30.13,NW,305,3.0,8.0,62,0.00,,,0.00,,2013-02-03 23:52:00,
2013-02-03 16:01:00,59.0,46.0,30.11,WNW,302,3.0,6.0,62,0.00,,,0.00,,2013-02-04 00:01:00,
2013-02-03 16:11:00,59.0,46.0,30.11,WNW,302,3.0,6.0,62,0.00,,,0.00,,2013-02-04 00:11:00,
2013-02-03 16:21:00,59.0,46.0,30.11,SSW,195,2.0,4.0,62,0.00,,,0.00,,2013-02-04 00:21:00,
2013-02-03 16:31:00,59.0,46.0,30.11,NNW,328,2.0,6.0,63,0.00,,,0.00,,2013-02-04 00:31:00,
2013-02-03 16:41:00,59.0,46.0,30.11,NNW,328,2.0,6.0,63,0.00,,,0.00,,2013-02-04 00:41:00,
2013-02-03 16:51:00,58.0,46.0,30.11,West,272,0.0,2.0,64,0.00,,,0.00,,2013-02-04 00:51:00,
2013-02-03 17:01:00,58.0,46.0,30.11,NW,307,2.0,3.0,65,0.00,,,0.00,,2013-02-04 01:01:00,
2013-02-03 17:11:00,58.0,46.0,30.11,NW,307,2.0,3.0,65,0.00,,,0.00,,2013-02-04 01:11:00,
2013-02-03 17:21:00,58.0,47.0,30.11,SW,226,1.0,4.0,66,0.00,,,0.00,,2013-02-04 01:21:00,
2013-02-03 17:31:00,56.0,46.0,30.10,SSE,159,0.0,1.0,69,0.00,,,0.00,,2013-02-04 01:31:00,
2013-02-03 17:41:00,56.0,46.0,30.10,SSE,159,0.0,1.0,69,0.00,,,0.00,,2013-02-04 01:41:00,
2013-02-03 17:51:00,55.0,45.0,30.11,SSE,159,0.0,0.0,70,0.00,,,0.00,,2013-02-04 01:51:00,
2013-02-03 18:01:00,53.0,45.0,30.11,SSE,159,0.0,0.0,74,0.00,,,0.00,,2013-02-04 02:01:00,
2013-02-03 18:11:00,53.0,45.0,30.11,SSE,159,0.0,0.0,74,0.00,,,0.00,,2013-02-04 02:11:00,
2013-02-03 18:21:00,51.0,44.0,30.11,SSE,159,0.0,0.0,77,0.00,,,0.00,,2013-02-04 02:21:00,
2013-02-03 18:31:00,49.0,44.0,30.11,SSE,159,0.0,0.0,83,0.00,,,0.00,,2013-02-04 02:31:00,
2013-02-03 18:41:00,49.0,44.0,30.11,SSE,159,0.0,0.0,83,0.00,,,0.00,,2013-02-04 02:41:00,
2013-02-03 18:52:00,49.0,45.0,30.11,SSE,159,0.0,0.0,85,0.00,,,0.00,,2013-02-04 02:52:00,
2013-02-03 19:01:00,48.0,44.0,30.10,SSE,159,0.0,0.0,87,0.00,,,0.00,,2013-02-04 03:01:00,
2013-02-03 19:11:00,47.0,44.0,30.10,SSE,159,0.0,0.0,88,0.00,,,0.00,,2013-02-04 03:11:00,
2013-02-03 19:21:00,47.0,44.0,30.10,SSE,159,0.0,0.0,88,0.00,,,0.00,,2013-02-04 03:21:00,
2013-02-03 19:31:00,46.0,43.0,30.11,SSE,159,0.0,0.0,90,0.00,,,0.00,,2013-02-04 03:31:00,
2013-02-03 19:41:00,46.0,43.0,30.11,SSE,159,0.0,0.0,90,0.00,,,0.00,,2013-02-04 03:41:00,
2013-02-03 19:51:00,46.0,44.0,30.10,SSE,159,0.0,0.0,91,0.00,,,0.00,,2013-02-04 03:51:00,
2013-02-03 20:01:00,45.0,43.0,30.11,SSE,159,0.0,0.0,92,0.00,,,0.00,,2013-02-04 04:01:00,
2013-02-03 20:11:00,45.0,43.0,30.11,SSE,159,0.0,0.0,92,0.00,,,0.00,,2013-02-04 04:11:00,
2013-02-03 20:21:00,45.0,43.0,30.11,SSE,159,0.0,0.0,93,0.00,,,0.00,,2013-02-04 04:21:00,
2013-02-03 20:31:00,44.0,42.0,30.12,SSE,159,0.0,0.0,94,0.00,,,0.00,,2013-02-04 04:31:00,
2013-02-03 20:41:00,44.0,42.0,30.12,SSE,159,0.0,0.0,94,0.00,,,0.00,,2013-02-04 04:41:00,
2013-02-03 20:52:00,44.0,42.0,30.12,SSE,159,0.0,0.0,94,0.00,,,0.00,,2013-02-04 04:52:00,
2013-02-03 21:03:00,43.0,42.0,30.11,SSE,159,0.0,0.0,95,0.00,,,0.00,,2013-02-04 05:03:00,
2013-02-03 21:11:00,43.0,42.0,30.11,SSE,159,0.0,0.0,95,0.00,,,0.00,,2013-02-04 05:11:00,
2013-02-03 21:21:00,43.0,42.0,30.11,SSE,159,0.0,0.0,95,0.00,,,0.00,,2013-02-04 05:21:00,
2013-02-03 21:33:00,43.0,42.0,30.11,SSE,159,0.0,0.0,96,0.00,,,0.00,,2013-02-04 05:33:00,
2013-02-03 21:41:00,43.0,42.0,30.11,SSE,159,0.0,0.0,96,0.00,,,0.00,,2013-02-04 05:41:00,
2013-02-03 21:51:00,43.0,42.0,30.12,ENE,76,4.0,5.0,97,0.00,,,0.00,,2013-02-04 05:51:00,
2013-02-03 22:01:00,43.0,42.0,30.12,ENE,67,0.0,4.0,96,0.00,,,0.00,,2013-02-04 06:01:00,
2013-02-03 22:11:00,43.0,42.0,30.12,ENE,67,0.0,4.0,96,0.00,,,0.00,,2013-02-04 06:11:00,
2013-02-03 22:21:00,43.0,42.0,30.11,ENE,67,0.0,0.0,96,0.00,,,0.00,,2013-02-04 06:21:00,
2013-02-03 22:31:00,42.0,41.0,30.11,ENE,76,3.0,3.0,97,0.00,,,0.00,,2013-02-04 06:31:00,
2013-02-03 22:42:00,42.0,41.0,30.11,ENE,76,3.0,3.0,97,0.00,,,0.00,,2013-02-04 06:42:00,
2013-02-03 22:52:00,42.0,41.0,30.12,ENE,70,0.0,0.0,98,0.00,,,0.00,,2013-02-04 06:52:00,
2013-02-03 23:01:00,42.0,41.0,30.12,ENE,57,3.0,4.0,97,0.00,,,0.00,,2013-02-04 07:01:00,
2013-02-03 23:11:00,42.0,41.0,30.12,ENE,57,0.0,1.0,98,0.00,,,0.00,,2013-02-04 07:11:00,
2013-02-03 23:21:00,42.0,41.0,30.12,ENE,57,0.0,1.0,98,0.00,,,0.00,,2013-02-04 07:21:00,
2013-02-03 23:31:00,42.0,41.0,30.12,ENE,57,0.0,0.0,97,0.00,,,0.00,,2013-02-04 07:31:00,
2013-02-03 23:41:00,42.0,41.0,30.12,ENE,57,0.0,0.0,97,0.00,,,0.00,,2013-02-04 07:41:00,
2013-02-03 23:52:00,41.0,40.0,30.12,ENE,57,0.0,0.0,98,0.00,,,0.00,,2013-02-04 07:52:00,